Location: Torrington
(42.0650°N, 104.1810°W)
Time: 23:29:49
(UTC-06:00)

Daily predictions for brighter satellites

Satellite Brightness Start Highest point End
(mag) Time Altitude Azimuth Time Altitude Azimuth Time Altitude Azimuth
Okean 2 Rocket 3.3 20:10:29 10° S 20:14:59 85° W 20:19:32 10° N
Meteor 2-4 Rocket 4.3 20:12:50 10° N 20:18:02 39° ENE 20:23:20 10° SE
Cosmos 1655 Rocket 4.0 20:12:52 10° S 20:19:06 73° E 20:25:27 10° NNE
H-2A R/B 3.8 20:20:06 10° S 20:23:46 47° W 20:27:25 10° NNW
ATLAS 2AS CENTAUR R/B 3.3 20:19:18 10° S 20:26:23 44° ESE 20:33:55 10° NE
Meteor 1-13 Rocket 4.4 20:21:10 10° N 20:27:07 66° ENE 20:33:00 10° SSE
USA 186 1.9 20:24:58 10° SSE 20:28:17 65° ENE 20:31:38 10° N
Helios 1B rocket 3.9 20:27:53 10° NE 20:30:45 18° E 20:33:36 10° SE
Resurs 1-3 3.6 20:29:24 10° SSE 20:33:47 86° ENE 20:38:12 10° NNW
Lacrosse 5 2.1 20:31:59 10° SSW 20:36:48 45° SE 20:41:37 10° ENE
NOSS 2-3 (E) 3.9 20:32:22 10° SSW 20:36:56 61° ESE 20:42:14 10° NE
Centaur D AC-29 4.4 20:33:11 10° SSW 20:38:08 12° S 20:41:21 10° SSE
Cosmos 1452 Rocket 4.2 20:33:08 10° SSW 20:38:21 61° WNW 20:43:37 10° NNE
Cosmos 1420 Rocket 4.1 20:34:21 10° SSW 20:39:31 85° WNW 20:44:45 10° NNE
Cosmos 1850 Rocket 4.1 20:34:28 10° NNW 20:39:49 69° ENE 20:45:04 10° SSE
Atlas Centaur 2 3.9 20:38:41 10° WSW 20:45:54 32° S 20:51:30 13° SE
Cosmos 1602 4.2 20:42:51 10° SSW 20:46:39 62° W 20:50:28 10° N
SeaSat 1 2.5 20:43:04 10° NE 20:47:56 56° ESE 20:52:45 10° SSW
ARGOS 4.5 20:49:54 15° ESE 20:52:53 23° ENE 20:56:59 10° NNE
Cosmos 220 Rocket 4.3 20:50:03 10° N 20:54:14 48° ENE 20:57:12 18° SE
Okean 1 Rocket 3.3 20:50:32 10° SSE 20:54:41 47° E 20:58:54 10° NNE
Cosmos 1300 Rocket 3.4 20:51:11 10° S 20:55:28 73° E 20:59:47 10° NNE
Tiangong 1 1.0 20:53:50 10° W 20:56:34 55° SSW 20:57:45 28° SE
Cosmos 1607 4.1 20:50:47 10° NNW 20:57:16 73° NE 21:02:27 17° SE
GPS 2-05 Rocket1 4.4 20:55:11 10° WSW 20:57:52 22° SSW 20:59:09 17° SSE
Cosmos 1025 Rocket 3.7 20:53:56 10° N 20:57:52 35° ENE 21:00:09 20° SE
YAOGAN 6 2.7 20:56:41 18° SSE 20:59:08 53° ENE 21:02:35 10° N
Okean 2 4.3 20:55:32 10° NNE 20:59:11 30° ENE 21:00:54 22° ESE
Cosmos 2263 Rocket 2.2 20:55:00 10° NNW 21:00:44 85° ENE 21:05:41 14° SSE
Cosmos 2278 Rocket 4.4 21:02:18 10° NNE 21:03:24 11° NE 21:04:31 10° NE
SJ-11-01 4.2 20:59:46 10° SSE 21:04:26 84° ENE 21:09:07 10° NNW
Cosmos 2322 Rocket 2.6 20:59:19 10° SSW 21:05:00 68° WNW 21:10:42 10° NNE
Meteor 1-11 Rocket 4.1 21:01:20 10° SSW 21:07:09 72° W 21:12:53 10° N
Cosmos 1844 Rocket 4.1 21:02:50 10° N 21:07:25 24° NE 21:10:10 17° E
Abrixas rocket 4.0 21:04:43 10° NW 21:07:35 27° N 21:09:52 13° ENE
Okean 1-7 Rocket 4.0 21:03:44 10° N 21:08:03 44° ENE 21:10:26 24° SE
Resurs 01 Rocket 3.2 21:05:58 10° SSW 21:10:02 35° W 21:14:09 10° NNW
NOSS 2-3 (C) 4.2 21:05:57 10° SW 21:10:38 73° NW 21:16:09 10° NNE
Cosmos 1515 4.5 21:08:28 10° N 21:11:58 33° ENE 21:12:54 29° ESE
Cosmos 1975 4.2 21:16:24 21° E 21:16:24 21° E 21:19:02 10° NE
Cosmos 2266 Rocket 3.9 21:10:07 10° S 21:16:09 89° WNW 21:22:14 10° N
SL-16 R/B 3.0 21:11:45 10° SW 21:17:17 55° WNW 21:22:52 10° NNE
Terra 4.0 21:16:59 10° ENE 21:17:45 10° ENE 21:18:32 10° NE
Helios 1A 2.9 21:18:03 21° SSE 21:20:53 88° E 21:25:10 10° NNW
Cosmos 2219 Rocket 3.8 21:24:26 16° E 21:24:26 16° E 21:26:35 10° ENE
USA 238 DEB 4.0 21:16:19 10° NNW 21:23:18 57° NE 21:27:24 26° ESE
USA 238 4.0 21:16:25 10° NNW 21:23:24 57° NE 21:27:30 26° ESE
Cosmos 2315 Rocket 4.0 21:17:26 10° N 21:23:42 70° E 21:28:16 20° SSE
Meteor 1-23 Rocket 4.2 21:18:54 10° NNW 21:24:29 81° W 21:29:21 14° S
Meteor 1-29 2.9 21:23:37 10° NNE 21:27:01 60° E 21:27:46 45° SSE
Cosmos 1500 3.6 21:27:02 39° ESE 21:27:19 39° E 21:30:58 10° NNE
Cosmos 2322 3.6 21:23:03 10° S 21:28:37 63° ESE 21:34:14 10° NNE
Nadezhda 2 Rocket 4.4 21:22:33 10° S 21:28:38 69° E 21:34:50 10° NNE
ERS-1 Rocket 3.0 21:26:41 29° SE 21:29:08 61° ENE 21:34:05 10° N
USA 245 4.4 21:28:31 31° ESE 21:29:45 37° ENE 21:33:39 10° N
Cosmos 1939 Rocket 4.1 21:29:48 10° SSW 21:33:29 38° W 21:37:10 10° NNW
Cosmos 1536 4.3 21:31:02 10° SSW 21:34:50 38° WNW 21:38:39 10° N
Cosmos 2360 Rocket 2.1 21:31:55 10° SSW 21:37:34 90° WNW 21:43:14 10° NNE
ATLAS 3B R/B 2.6 21:31:14 10° NNW 21:38:00 77° NE 21:41:11 33° SE
COSMOS 2428 3.0 21:37:40 31° SSE 21:39:39 42° ESE 21:45:01 10° NE
Cosmos 1745 Rocket 4.5 21:45:48 35° ESE 21:46:56 38° E 21:52:32 10° NNE
Cosmos 1892 Rocket 3.7 21:42:49 10° N 21:47:10 54° E 21:47:37 51° ESE
SAR-Lupe-4 3.5 21:46:54 64° S 21:47:24 81° WSW 21:51:01 10° NNW
CZ-4B DEB 3.2 21:47:37 48° W 21:47:37 48° W 21:50:24 10° NNW
H-2A R/B 2.4 21:49:01 41° E 21:49:55 45° ENE 21:54:39 10° N
Cosmos 1238 Rocket 4.0 21:45:30 10° N 21:52:15 70° E 21:54:50 38° SSE
Cosmos 2333 Rocket 3.6 21:55:01 21° ENE 21:55:01 21° ENE 21:57:35 10° NE
NOAA 11 4.4 21:53:52 28° S 21:56:48 69° WSW 22:02:19 10° NNW
Cosmos 2333 4.2 21:58:36 45° SSE 21:59:59 57° ESE 22:05:30 10° NNE
Cosmos 1544 Rocket 3.6 22:01:27 62° E 22:01:27 62° E 22:05:47 10° NNE
Cosmos 405 3.4 22:02:29 57° N 22:02:29 57° N 22:05:25 10° N
Cosmos 1302 Rocket 3.9 21:59:41 32° S 22:02:13 79° ESE 22:07:31 10° NNE
SAR-Lupe-1 4.4 22:04:15 58° WSW 22:04:16 58° WSW 22:07:49 10° NNW
Cosmos 1486 Rocket 3.9 22:00:18 10° NNW 22:05:34 81° ENE 22:06:31 60° SE
Helios 1B rocket 3.9 22:02:22 10° N 22:06:09 36° WNW 22:09:55 10° SW
MetOp-A 4.3 22:06:05 37° S 22:08:08 67° WSW 22:13:30 10° NNW
Cosmos 2237 Rocket 4.0 22:12:24 16° ENE 22:12:24 16° ENE 22:13:53 10° NE
SPOT 5 2.7 22:12:51 71° SSE 22:13:24 89° ENE 22:18:04 10° NNW
Cosmos 1455 Rocket 3.1 22:14:10 68° NE 22:14:10 68° NE 22:18:13 10° NNE
Aureole 3 Rocket 4.2 22:06:04 10° N 22:14:30 86° W 22:16:58 42° S
ATLAS 2AS CENTAUR R/B 3.9 22:09:49 10° WSW 22:17:21 51° NW 22:25:16 10° NNE
Lacrosse 5 3.3 22:15:08 10° WSW 22:19:51 37° NNW 22:24:35 10° NE
Cosmos 1241 Rocket 4.4 22:13:17 10° SSW 22:19:51 87° ESE 22:26:23 10° NNE
Cosmos 1066 Rocket 4.2 22:16:38 10° NNW 22:22:04 76° W 22:23:12 56° SSW
SL-8 R/B 3.8 22:21:47 10° WNW 22:26:12 70° WSW 22:26:12 70° WSW
CENTAUR R/B 4.1 22:20:04 10° NNW 22:26:56 33° NE 22:30:30 24° E
NOSS 3-4 (A) 3.7 22:28:46 49° E 22:28:46 49° E 22:33:59 10° NE
NOSS 3-4 (C) 3.8 22:28:58 48° E 22:28:58 48° E 22:34:06 10° NE
SL-08 RB Rocket 3.9 22:27:46 61° WSW 22:27:56 62° W 22:32:26 10° NNW
Cosmos 1743 4.2 22:31:23 31° N 22:31:23 31° N 22:33:29 10° N
ARGOS 3.8 22:31:25 40° SW 22:32:46 50° W 22:37:59 10° NNW
Atlas Centaur 2 4.3 22:29:25 10° WSW 22:34:08 18° SSW 22:34:08 18° SSW
Nadezhda 1 Rocket 3.9 22:30:32 10° N 22:36:53 85° E 22:37:46 68° SSE
Landsat 7 4.0 22:39:59 68° N 22:39:59 68° N 22:44:10 10° NNW
Cosmos 1354 Rocket 4.0 22:38:01 10° NNW 22:43:07 81° NNW 22:43:07 81° NNW
Meteor 1-21 4.1 22:38:02 10° N 22:43:32 77° ENE 22:43:32 77° ENE
DMSP B5D2-2 4.1 22:38:51 10° NNE 22:43:42 75° NNE 22:43:42 75° NNE
Cosmos 2278 Rocket 2.5 22:43:14 10° NNW 22:48:29 55° NE 22:48:29 55° NE
SPOT 1/Viking Rocket 4.0 22:51:20 53° WSW 22:51:29 53° W 22:56:36 10° NNW
Cosmos 1844 Rocket 3.0 22:46:07 10° NNW 22:51:39 55° WSW 22:51:49 55° WSW
Cosmos 1818 4.1 22:50:29 29° WSW 22:53:07 57° NW 22:58:31 10° NNE
Cosmos 1709 Rocket 4.1 22:55:20 59° ENE 22:55:20 59° ENE 23:00:47 10° NNE
Terra 2.4 22:55:49 54° N 22:55:49 54° N 22:59:30 10° NNW
Cosmos 2181 Rocket 4.4 22:49:33 10° N 22:55:28 52° ENE 22:55:28 52° ENE
H-2A R/B 3.7 23:00:58 30° NNE 23:00:58 30° NNE 23:03:25 10° N
Cosmos 2219 Rocket 2.4 23:06:04 64° WNW 23:06:15 65° WNW 23:11:53 10° NNE
Meteor 2-9 Rocket 4.5 23:09:28 65° N 23:09:28 65° N 23:14:15 10° N
NOSS 3-2 (A) 4.1 23:04:39 10° NW 23:12:09 64° WSW 23:13:01 60° SSW
SL-16 R/B 4.1 23:21:36 19° NE 23:21:36 19° NE 23:23:19 10° NE
COSMOS 2428 4.4 23:19:31 12° WSW 23:24:02 31° NW 23:29:05 10° N
ATLAS 3B R/B 4.3 23:23:22 10° WNW 23:27:52 20° WSW 23:28:26 19° WSW
H-2A R/B 3.9 23:29:40 21° W 23:29:40 21° W 23:33:18 10° NW
ATLAS CENTAUR R/B 4.1 23:28:54 10° N 23:29:33 13° N 23:29:33 13° N
NOSS 0 Rocket 4.3 23:35:52 61° NW 23:35:52 61° NW 23:41:58 10° NNE
Cosmos 2333 Rocket 3.0 23:36:58 46° WNW 23:36:58 46° WNW 23:42:24 10° NNE
Cosmos 2237 Rocket 3.2 23:54:11 44° NNW 23:54:11 44° NNW 23:58:39 10° NNE
Cosmos 2369 Rocket 4.3 23:51:14 10° N 23:55:03 18° NE 23:55:12 18° NE
